Flag for U.S.A. Weather past 2 weeks in Wailuku, Hawaii, U.S.A.

Now
73 °F

Passing clouds.


Feels Like: 73 °F
Forecast: 72 / 78 °F
Wind: 20 mph from Northeast

Location: Kahului Airport


UV Index: 3 (Moderate)

Visibility: 10 mi


Pressure: 30.14 "Hg

Humidity: 81%

Dew point: 67 °F

Location of WailukuLocation

Historic Weather in Wailuku

°F

Wailuku temperature yesterday

Maximum temperature yesterday: 82 °F (at 1:54 PM)
Minimum temperature yesterday: 71 °F (at 4:54 AM)
Average temperature yesterday: 75 °F

Past Weeks' High & Low Weather Summary

 TemperatureHumidityPressure
High84 °F (Apr 18, 12:54 PM)94% (Apr 7, 6:40 PM)30.20 "Hg (Apr 7, 6:40 PM)
Low63 °F (Apr 11, 5:54 AM)42% (Apr 14, 9:54 AM)29.99 "Hg (Apr 6, 2:54 PM)
Average73 °F72%30.09 "Hg
* Reported Apr 5 6:54 PM — Apr 20 6:54 PM, Wailuku, Weather by CustomWeather, © 2014

Note: Actual official high and low records may vary slightly from our data, if they occured in-between our weather recording intervals... More about our weather records

Advertising

Historic Weather Conditions — Data for Previous 24 hours

 ConditionsComfort  
Time TempWeatherWind HumidityBarometerVisibility
6:54 PM
Apr 20
74 °FPartly cloudy.16 mph79%30.13 "Hg10 mi
5:54 PM75 °FBroken clouds.14 mph79%30.12 "Hg10 mi
4:54 PM76 °FBroken clouds.15 mph74%30.11 "Hg10 mi
3:54 PM78 °FBroken clouds.18 mph66%30.09 "Hg10 mi
2:54 PM80 °FBroken clouds.25 mph67%30.10 "Hg10 mi
1:54 PM83 °FScattered clouds.24 mph59%30.11 "Hg10 mi
12:54 PM84 °FBroken clouds.23 mph55%30.13 "Hg10 mi
11:54 AM79 °FBroken clouds.23 mph67%30.14 "Hg10 mi
10:54 AM82 °FScattered clouds.23 mph60%30.15 "Hg10 mi
9:54 AM77 °FScattered clouds.18 mph71%30.16 "Hg10 mi
8:54 AM76 °FScattered clouds.18 mph80%30.15 "Hg10 mi
7:54 AM74 °FScattered clouds.16 mph76%30.14 "Hg10 mi
6:54 AM73 °FScattered clouds.21 mph76%30.12 "Hg10 mi
5:54 AM72 °FPartly cloudy.15 mph84%30.11 "Hg10 mi
4:54 AM72 °FPartly cloudy.14 mph78%30.10 "Hg10 mi
3:54 AM72 °FLight rain. Mostly cloudy.14 mph84%30.10 "Hg10 mi
2:54 AM72 °FPassing clouds.14 mph81%30.10 "Hg10 mi
1:54 AM72 °FPassing clouds.16 mph84%30.11 "Hg10 mi
12:54 AM70 °FLight rain. Mostly cloudy.10 mph90%30.13 "Hg10 mi
11:54 PM
Apr 19
71 °FRain. Mostly cloudy.12 mph84%30.14 "Hg7 mi
10:54 PM73 °FPassing clouds.14 mph79%30.15 "Hg10 mi
9:54 PM74 °FPassing clouds.17 mph74%30.14 "Hg10 mi
8:54 PM74 °FPassing clouds.16 mph74%30.12 "Hg10 mi
Weather by CustomWeather, © 2014

See weather overview